"Pseudo-MPEC" for P11C4qK

Created 2022 Nov 26 21:22:18 UT using Find_Orb

Click here for an explanation of pseudo-MPECs

 
 Astrometry: 
     P11C4qK* C2022 11 24gL;+AXq])KH\Z(K`/fq-R']qQMnCZ[pu@k-GDPhlfHt8b]XZd@fkF51
     P11C4qK  C2022 11 24#^vPR@dhj_.5G/Rk_@8LB2+pPe4p+%siU$vAstrometryuhd?(LUF51
     P11C4qK  C2022 11 24O\-tu'2G#E?.opM)fYb:=xm,b24ig=KN8F/JH3oAukIGX\/L^'j7F51
     P11C4qK 2C2022 11 24tvy,eBredacted;N(m@n2Epynkt3]w4o3DAL%1cya+_3c,6)(JUwJ04
     P11C4qK 2C2022 11 24O0SMDHclick`Bihere2GTOFol,PQs9]cv8e%t2JfeQdg7-0$.dS/J04
     P11C4qK KC2022 11 25.17120401 49 42.140-12 56 51.20   ~BP4b 21.59GVNEOCPI52
     P11C4qK KC2022 11 25.17368201 49 41.560-12 56 40.10   ~BP4b 21.04GVNEOCPI52
     P11C4qK KC2022 11 25.17492201 49 41.270-12 56 35.40   ~BP4b       VNEOCPI52
     P11C4qK KC2022 11 264y;PhWhRSZq2vlh/TNm?^L4kJCYI8w'TBYaPtRB;8qj_j`Dp2:*WH21
     P11C4qK KC2022 11 26d(64@gh!AdZ]fe1aMZx$9hd]^PRC.Kx*EfLGa6[xVF/ub7/53U$QH21
     P11C4qK KC2022 11 26m[E_Ca0BF0brW#/8e9e:!#=8jrpAe2#drF\BLl^x#b-M/)A0,E'xH21
     P11C4qK KC2022 11 26.18263201 45 50.857-11 44 54.49   ~BQ4q 21.53GVNEOCPI52
     P11C4qK KC2022 11 26.18411601 45 50.483-11 44 48.08   ~BQ4q 21.75GVNEOCPI52
     P11C4qK KC2022 11 26.18559901 45 50.137-11 44 42.04   ~BQ4q 21.38GVNEOCPI52
     P11C4qK KC2022 11 26.18708101 45 49.741-11 44 35.16   ~BQ4q 21.18GVNEOCPI52
     P11C4qK bC2022 11 265yn1?Z4),4ciW55;4mWucurYD\eCc=Xei[EW?Rl(u#r0r`WP[@%8L01
     P11C4qK bC2022 11 268^\t#%]@7T+'5Q^.]*kXa=BZ#d8@iP3(2a+kE)SedhpQS-v1n9T(L01
     P11C4qK bC2022 11 26pTl.N69aKI#qH)T!IC?@Ns'J^P=8X3F%vO;563:961;t?C]:XB5_L01
     P11C4qK KC2022 11 26mNid@HRg'NpB=`/WEC;sb2forp3XHqoPaZqc28explanationj:.K51
     P11C4qK KC2022 11 26f1nuBHt?dH\P\0QnXTeN*LbUiNmYB!ySJNur#o6KQ@i3Pu[/OF73K51
     P11C4qK KC2022 11 26Myi'6PIl)XQh[F%`QE)v$y_-vuMOCVTMYW[pif_$gd=m7mL6R36(K51
     P11C4qK 1C2022 11 26.85488 01 43 17.41 -10 55 40.2    ~BQL7 20.6 VXNEOCP033
     P11C4qK 1C2022 11 26.85701 01 43 16.88 -10 55 30.8    ~BQL7 20.8 VXNEOCP033
     P11C4qK 1C2022 11 26.85915 01 43 16.34 -10 55 21.4    ~BQL7 20.2 VXNEOCP033
     P11C4qK 1C2022 11 26.86136 01 43 15.85 -10 55 11.4    ~BQL7 20.9 VXNEOCP033

Station data:
(033) Karl Schwarzschild Observatory, Tautenburg  (N50.980137 E11.711240)
   Germany.  Observers S. Melnikov, C. Hoegner, B. Stecklum. Measurer B.
   Stecklum. 1.34-m f/3 Schmidt + CCD.
(F51) Pan-STARRS 1, Haleakala  (N20.707234 W156.255910)  US/Hawaii.
   Observers J. Bulger, T. Lowe, A. Schultz, M. Willman. Measurers K.
   Chambers, S. Chastel, T. de Boer, L. Denneau, J. Fairlamb, H. Flewelling,
   M. Huber, C.-C. Lin, E. Magnier, Y. Ramanjooloo, R. Wainscoat, R. Weryk.
   1.8-m Ritchey-Chrétien + CCD.
(H21) Astronomical Research Observatory, Westfield  (N39.483054 W87.968270)
   US/Illinois.  Observer R. Holmes. Measurers S. Foglia, L. Buzzi, T.
   Linder, R. Holmes. 0.76-m f/3.0 astrograph + CCD0.81-m f/4.0 astrograph +
   CCD0.61-m f/4.5 astrograph + CCD0.40-m f/5.32 astrograph + CCD.
(I52) Steward Observatory, Mt. Lemmon Station  (N32.442544 W110.788920)
   US/Arizona.  Observers T. A. Pruyne, B. M. Africano, E. J. Christensen, G.
   A. Farneth, D. C. Fuls, A. R. Gibbs, A. D. Grauer, H. Gröller, J. A.
   Johnson, R. A. Kowalski, S. M. Larson, G. J. Leonard, D. Rankin, R. L.
   Seaman, F. C. Shelly, K. W. Wierzchoś. 1.0-m reflector + CCD.
(J04) ESA Optical Ground Station, Tenerife  (N28.300922 W16.511830)  Canary
   Islands (Spain).  Observer D. Abreu. Measurers M. Micheli, D. Koschny, E.
   Schwab, M. Busch, A. Knöfel. 1.0-m f/4.4 reflector + CCD.
(K51) Osservatorio del Celado, Castello Tesino  (N46.029410 E11.657900)
   Italy.  Observers G. Favero, R. Furgoni. Measurer R. Furgoni. 0.80-m f/4
   reflector + CCD.
(L01) Višnjan Observatory, Tičan  (N45.290897 E13.749300)  Croatia.
   Observers K. Korlević, D. Pujagic, V. Dobos. Measurers D. Pujagic, K.
   Korlević. 1.0-m f/2.9 reflector + CCD.

Orbital elements:  P11C4qK
   Perihelion 2023 Jan 25.78046 +/- 0.154 TT = 18:43:51 (JD 2459970.28046)
Epoch 2022 Nov 26.0 TT = JDT 2459909.5   Earth MOID: 0.0768   Ma: 0.0272
M 319.50093584 +/- 0.45             (J2000 ecliptic)          AutoNEOCP
n   0.66631720 +/- 0.00583          Peri.   49.88018 +/- 0.14
a   1.29822120 +/- 0.00757          Node    69.08093 +/- 0.09
e   0.2286091 +/- 0.00399           Incl.   15.94803 +/- 0.23
P   1.48/540.27d           H 23.2   G  0.15   U  9.3
q 1.00143592 +/- 0.000668    Q 1.59500647 +/- 0.0145
From 25 observations 2022 Nov. 24-26; mean residual 0".37
Residuals in arcseconds: 
221124 F51  .08+  .17+    221126 H21  .13-  .06-    221126 K51  .39+  .81-    
221124 F51  .03-  .10+    221126 H21  .03-  .07+    221126 K51  .51+  .31-    
221124 F51  .05-  .03-    221126 I52  .12+  .16+    221126 K51  .52+  .58-    
221124 J04  .15+  .06+    221126 I52  .00   .11+    221126 033  .03+  .01-    
221124 J04  .07+  .06-    221126 I52  .29+  .29-    221126 033  .20-  .13-    
221125 I52  .47-  .56-    221126 I52  .15-  .14+    221126 033  .54-  .28-    
221125 I52  .01-  .21+    221126 L01  .95-  .32+    221126 033  .11+  .16-    
221125 I52  .23+  .26-    221126 L01  .15-  .72+    
221126 H21  .16-  .10-    221126 L01  .27+  1.4+    

Ephemerides (geocentric):
Date (UTC) HH   RA             Dec           delta  r     elong  mag " sig PA
---- --------  ------------   ------------  ------ ------ -----  --- --------
2022 11 26 21  01 43 12.794   -10 53 24.64  .16902 1.1072 132.0 21.2 .685 178
2022 11 26 22  01 43 03.318   -10 50 18.29  .16894 1.1071 132.0 21.2 .696 179
2022 11 26 23  01 42 53.843   -10 47 11.66  .16886 1.1070 132.0 21.2 .707   0
2022 11 27 00  01 42 44.371   -10 44 04.74  .16878 1.1068 131.9 21.2 .718   1
2022 11 27 01  01 42 34.900   -10 40 57.54  .16871 1.1067 131.9 21.2 .730   2
2022 11 27 02  01 42 25.431   -10 37 50.05  .16863 1.1066 131.9 21.2 .742   3
2022 11 27 03  01 42 15.964   -10 34 42.28  .16855 1.1064 131.8 21.2 .755   4
2022 11 27 04  01 42 06.499   -10 31 34.23  .16847 1.1063 131.8 21.2 .768   5
2022 11 27 05  01 41 57.036   -10 28 25.89  .16840 1.1062 131.8 21.2 .782   6
2022 11 27 06  01 41 47.575   -10 25 17.27  .16832 1.1061 131.7 21.2 .796   7
2022 11 27 07  01 41 38.116   -10 22 08.37  .16825 1.1059 131.7 21.2 .810   8
2022 11 27 08  01 41 28.659   -10 18 59.19  .16817 1.1058 131.7 21.2 .825   9
2022 11 27 09  01 41 19.204   -10 15 49.73  .16809 1.1057 131.6 21.2 .841  10
2022 11 27 10  01 41 09.752   -10 12 39.99  .16802 1.1055 131.6 21.2 .857  10
2022 11 27 11  01 41 00.301   -10 09 29.97  .16794 1.1054 131.6 21.2 .874  11
2022 11 27 12  01 40 50.852   -10 06 19.67  .16787 1.1053 131.5 21.2 .891  12
2022 11 27 13  01 40 41.406   -10 03 09.09  .16779 1.1052 131.5 21.2 .909  13
2022 11 27 14  01 40 31.962   -09 59 58.23  .16772 1.1050 131.5 21.2 .927  14
2022 11 27 15  01 40 22.519   -09 56 47.09  .16764 1.1049 131.4 21.2 .945  15
2022 11 27 16  01 40 13.080   -09 53 35.68  .16757 1.1048 131.4 21.2 .964  16
2022 11 27 17  01 40 03.642   -09 50 23.99  .16750 1.1046 131.4 21.2 .984  16
2022 11 27 18  01 39 54.207   -09 47 12.03  .16742 1.1045 131.3 21.2 1.00  17
2022 11 27 19  01 39 44.774   -09 43 59.79  .16735 1.1044 131.3 21.2 1.02  18
2022 11 27 20  01 39 35.343   -09 40 47.27  .16728 1.1043 131.3 21.2 1.05  19
2022 11 27 21  01 39 25.915   -09 37 34.48  .16721 1.1041 131.2 21.2 1.07  19
2022 11 27 22  01 39 16.489   -09 34 21.42  .16713 1.1040 131.2 21.2 1.09  20
2022 11 27 23  01 39 07.065   -09 31 08.08  .16706 1.1039 131.2 21.2 1.11  21
2022 11 28 00  01 38 57.644   -09 27 54.47  .16699 1.1038 131.1 21.2 1.14  22
2022 11 28 01  01 38 48.225   -09 24 40.59  .16692 1.1036 131.1 21.2 1.16  22
2022 11 28 02  01 38 38.809   -09 21 26.44  .16685 1.1035 131.1 21.2 1.18  23
2022 11 28 03  01 38 29.395   -09 18 12.01  .16678 1.1034 131.0 21.2 1.21  24
2022 11 28 04  01 38 19.984   -09 14 57.32  .16670 1.1032 131.0 21.2 1.23  24
2022 11 28 05  01 38 10.575   -09 11 42.35  .16663 1.1031 131.0 21.2 1.26  25
2022 11 28 06  01 38 01.169   -09 08 27.12  .16656 1.1030 130.9 21.2 1.28  25
2022 11 28 07  01 37 51.765   -09 05 11.61  .16649 1.1029 130.9 21.2 1.31  26
2022 11 28 08  01 37 42.364   -09 01 55.84  .16642 1.1027 130.9 21.2 1.34  27
2022 11 28 09  01 37 32.966   -08 58 39.80  .16635 1.1026 130.8 21.2 1.37  27
2022 11 28 10  01 37 23.570   -08 55 23.49  .16628 1.1025 130.8 21.2 1.39  28
2022 11 28 11  01 37 14.177   -08 52 06.92  .16622 1.1023 130.7 21.2 1.42  28
2022 11 28 12  01 37 04.787   -08 48 50.08  .16615 1.1022 130.7 21.2 1.45  29
2022 11 28 13  01 36 55.399   -08 45 32.98  .16608 1.1021 130.7 21.2 1.48  29
2022 11 28 14  01 36 46.014   -08 42 15.61  .16601 1.1020 130.6 21.2 1.51  30
2022 11 28 15  01 36 36.632   -08 38 57.97  .16594 1.1018 130.6 21.2 1.54  30
2022 11 28 16  01 36 27.252   -08 35 40.08  .16587 1.1017 130.6 21.1 1.57  31
2022 11 28 17  01 36 17.876   -08 32 21.92  .16581 1.1016 130.5 21.1 1.60  31
2022 11 28 18  01 36 08.502   -08 29 03.49  .16574 1.1015 130.5 21.1 1.63  32
2022 11 28 19  01 35 59.131   -08 25 44.81  .16567 1.1013 130.5 21.1 1.67  32
2022 11 28 20  01 35 49.762   -08 22 25.86  .16561 1.1012 130.4 21.1 1.70  33